Temp
15 15 14 14 14 12 11 11 11 11 11 11 11 11 11 11 11 10 9 9 9 9 9 9 9 9 10 9 10 10 10 10 10 10 10 10 10 10 10 10 10 10 10 10 10 10 10 9 9
15 15 14 14 13 12 11 11 11 11 11 12 11 11 11 11 11 10 10 9 9 9 9 9 9 9 9 10 10 9 9 9 9 9 9 9 10 9 9 9 10 10 9 9 10 9 9 9 9
15 15 14 13 13 12 12 11 11 11 10 10 10 11 12 10 10 10 9 9 9 9 9 9 9 9 9 10 10 9 9 9 9 9 9 9 10 9 9 9 9 9 9 9 9 9 9 9 8
15 15 14 13 12 11 11 11 11 11 11 10 11 11 10 9 9 9 9 9 9 9 9 9 9 9 9 9 9 9 9 9 9 9 9 9 10 10 9 9 10 10 9 9 9 9 9 9 8
15 15 14 13 12 11 11 11 11 10 11 10 11 11 10 9 9 9 9 9 9 9 8 9 9 9 9 9 9 9 9 9 9 9 9 10 10 10 10 9 9 9 10 10 9 9 9 9 8
15 15 14 13 12 12 11 11 11 11 11 11 11 11 10 9 9 9 9 8 9 9 8 8 8 8 8 8 9 9 9 9 9 9 10 10 10 10 10 9 9 9 10 10 10 9 9 9 9
15 15 14 13 13 12 12 11 11 11 11 11 11 12 11 9 9 9 8 8 9 8 8 8 8 8 8 8 8 9 10 10 10 10 10 10 10 10 9 9 9 10 10 10 9 9 9 9 8
15 15 14 13 13 13 13 13 12 11 11 10 11 11 11 10 9 9 8 8 9 8 8 7 7 8 8 8 8 9 9 9 10 9 9 10 10 10 9 9 9 9 9 9 9 10 10 9 9
15 15 15 14 14 14 14 13 14 12 11 11 11 10 11 11 10 9 8 7 7 8 8 6 7 7 8 8 8 8 9 9 9 9 9 9 9 9 9 9 9 9 10 10 10 10 10 10 10
16 15 15 15 14 15 14 14 14 13 12 11 11 11 11 10 10 9 9 9 8 7 7 7 7 7 7 8 7 7 8 8 8 9 9 9 9 9 9 9 9 9 9 9 9 9 9 9 9
16 15 15 15 14 15 15 14 14 14 13 11 11 11 11 11 10 9 9 9 8 7 7 7 7 7 7 7 7 8 8 8 8 9 8 9 9 9 8 8 8 8 9 9 9 9 9 9 9
16 16 15 15 15 15 14 14 14 14 14 13 12 11 11 11 10 10 9 9 9 8 7 7 7 7 7 7 7 8 8 8 9 9 8 8 9 8 9 9 9 9 9 9 9 9 9 9 9
16 16 15 14 15 15 14 14 14 14 14 14 13 12 11 10 10 10 10 9 9 8 8 8 7 7 7 7 8 8 8 9 9 9 9 9 9 9 8 8 9 9 9 8 9 8 8 9 9
16 16 15 14 15 15 14 15 14 14 14 14 13 13 12 11 11 11 10 10 9 8 8 8 8 7 7 8 8 8 8 9 8 8 8 9 8 8 8 9 8 9 9 9 8 8 8 8 8
16 15 15 15 15 16 15 15 14 14 14 14 14 13 13 12 11 11 11 10 9 8 8 8 8 8 8 8 8 8 8 9 9 9 9 9 9 8 8 9 9 9 9 9 8 8 8 8 8
16 15 14 15 15 15 15 16 15 14 14 14 14 14 13 13 12 12 11 11 11 11 10 9 9 9 8 8 8 8 9 9 9 9 9 9 8 8 9 9 9 9 9 9 8 8 8 9 8
15 15 14 14 15 15 15 16 16 15 15 14 14 14 14 14 13 13 13 13 12 12 11 11 10 10 9 9 9 9 9 9 9 9 9 9 9 8 9 8 9 9 9 9 9 9 9 8 8
16 15 15 15 16 15 15 16 16 16 16 15 15 14 13 13 13 13 13 13 13 13 12 12 11 11 10 10 9 9 9 9 9 9 9 9 8 8 9 8 9 9 9 8 9 9 8 8 8
16 16 16 16 16 15 16 16 16 16 16 16 16 15 14 13 13 13 13 13 13 13 13 12 12 12 12 11 10 10 9 10 9 9 9 8 8 9 9 8 8 9 9 9 9 8 8 8 9
16 16 16 16 16 15 15 15 16 16 16 16 16 15 15 15 15 14 13 13 13 12 12 12 12 11 11 10 10 10 10 10 10 9 9 9 9 9 9 8 9 10 10 9 9 8 8 8 8
17 18 18 17 17 16 15 15 16 16 16 16 16 15 15 15 15 15 15 14 13 13 12 12 12 11 11 11 11 11 11 10 9 9 9 9 9 9 9 9 9 9 9 9 9 9 9 9 8
18 18 17 17 17 16 15 15 16 16 16 16 17 16 16 16 16 15 15 15 14 12 12 12 12 12 11 11 11 11 10 9 9 10 9 9 9 9 9 9 9 9 9 9 9 8 8 8 8
18 17 18 18 16 16 15 15 18 17 17 17 17 17 16 16 16 16 16 15 13 13 13 12 13 13 12 12 11 11 10 10 10 10 9 9 9 9 9 9 8 8 9 9 8 8 8 7 7
17 17 17 16 15 15 17 16 18 18 19 19 18 18 17 16 16 16 15 14 14 14 14 13 13 12 13 13 12 12 11 11 11 11 10 10 9 9 9 9 9 8 8 8 9 8 8 8 7
17 17 15 13 13 13 17 15 18 19 19 19 19 19 18 17 16 15 15 15 15 15 14 14 13 13 13 12 12 12 12 12 11 9 11 10 10 10 9 9 9 8 8 8 8 7 7 7 7
18 17 17 14 11 15 17 16 19 19 20 20 20 19 18 18 17 16 15 15 14 15 14 14 14 13 13 13 13 12 12 12 11 10 10 10 9 10 9 8 8 8 8 8 8 7 7 6 7
18 18 18 18 16 15 17 18 19 19 20 20 20 19 18 18 18 17 16 15 15 14 14 14 14 13 13 13 13 13 12 11 10 10 9 9 8 8 8 8 8 8 7 7 7 7 7 6 7
18 18 17 18 12 14 16 18 19 19 20 20 20 19 18 18 18 17 16 16 15 15 14 13 13 13 13 12 12 12 11 11 9 9 8 8 8 7 8 7 8 8 8 7 7 8 7 7 6
17 17 17 17 17 13 11 17 19 19 19 19 19 19 18 18 18 17 16 16 16 15 14 13 13 13 12 12 11 11 10 10 9 9 9 9 9 8 9 9 8 8 8 8 8 8 8 7 6
18 18 18 18 16 17 17 18 19 19 19 19 19 19 18 18 18 17 17 16 16 16 15 14 13 13 12 11 10 10 10 10 9 9 9 9 9 9 9 9 9 8 8 8 7 7 7 7 6
Height
3171 3170 3169 3169 3171 3168 3166 3167 3166 3166 3166 3166 3166 3168 3169 3168 3170 3173 3174 3175 3178 3180 3182 3184 3187 3189 3191 3193 3195 3197 3198 3200 3201 3202 3204 3205 3205 3205 3206 3207 3207 3208 3209 3210 3210 3210 3210 3210 3210
3173 3172 3172 3170 3171 3168 3168 3167 3166 3166 3166 3166 3167 3169 3169 3169 3169 3171 3175 3177 3180 3183 3185 3187 3190 3193 3195 3197 3199 3200 3201 3203 3204 3205 3206 3207 3207 3208 3207 3209 3209 3210 3211 3212 3213 3213 3213 3212 3212
3175 3175 3174 3171 3170 3170 3169 3167 3166 3166 3166 3166 3168 3170 3170 3170 3172 3174 3177 3180 3182 3185 3186 3189 3192 3195 3198 3199 3202 3203 3204 3206 3206 3208 3209 3210 3211 3211 3211 3211 3212 3212 3213 3214 3214 3215 3215 3215 3214
3177 3178 3176 3174 3172 3171 3170 3168 3166 3166 3166 3167 3169 3171 3172 3173 3175 3176 3179 3182 3185 3187 3189 3191 3195 3198 3200 3202 3204 3206 3207 3209 3209 3211 3212 3213 3213 3213 3213 3214 3214 3214 3215 3215 3216 3216 3217 3217 3217
3179 3179 3177 3176 3174 3172 3171 3169 3167 3168 3169 3170 3171 3171 3172 3175 3177 3179 3181 3184 3186 3188 3190 3193 3196 3200 3203 3205 3207 3208 3210 3211 3212 3213 3214 3214 3215 3216 3216 3216 3216 3216 3217 3217 3218 3218 3218 3218 3219
3181 3181 3179 3176 3175 3174 3173 3172 3172 3171 3172 3173 3174 3173 3175 3177 3179 3181 3183 3186 3188 3189 3192 3194 3196 3200 3205 3208 3209 3211 3213 3214 3215 3216 3216 3216 3216 3217 3218 3219 3219 3219 3219 3219 3220 3220 3220 3220 3220
3184 3183 3181 3179 3178 3176 3176 3174 3174 3174 3174 3176 3177 3177 3178 3179 3181 3182 3184 3186 3189 3188 3192 3194 3198 3202 3207 3208 3210 3213 3214 3217 3218 3219 3219 3219 3219 3219 3219 3219 3220 3220 3221 3221 3222 3222 3222 3221 3221
3185 3185 3183 3182 3181 3180 3178 3177 3176 3176 3177 3177 3178 3179 3179 3180 3183 3185 3186 3188 3189 3191 3194 3194 3199 3205 3208 3212 3214 3214 3218 3220 3221 3222 3221 3222 3222 3222 3222 3222 3222 3222 3223 3223 3222 3223 3223 3223 3223
3185 3185 3184 3185 3184 3183 3181 3181 3179 3178 3178 3178 3179 3181 3182 3183 3184 3186 3188 3190 3192 3193 3193 3198 3202 3205 3210 3213 3216 3219 3222 3222 3223 3224 3223 3223 3225 3224 3225 3224 3224 3224 3224 3224 3224 3224 3224 3224 3224
3185 3186 3186 3187 3186 3185 3183 3183 3182 3181 3180 3180 3181 3181 3184 3185 3187 3188 3190 3191 3193 3196 3197 3201 3204 3209 3211 3214 3216 3220 3223 3224 3223 3222 3223 3224 3224 3225 3226 3226 3225 3225 3226 3226 3225 3225 3225 3225 3225
3185 3186 3187 3188 3188 3188 3186 3185 3185 3184 3183 3182 3184 3184 3185 3186 3188 3190 3192 3193 3195 3198 3200 3202 3206 3209 3212 3214 3218 3221 3223 3223 3223 3223 3225 3226 3225 3225 3226 3227 3227 3226 3226 3227 3227 3225 3225 3225 3224
3187 3187 3189 3190 3190 3189 3189 3188 3189 3188 3187 3186 3185 3187 3188 3189 3190 3192 3194 3195 3196 3198 3202 3205 3208 3211 3214 3216 3219 3221 3224 3223 3225 3225 3226 3227 3227 3227 3227 3227 3227 3227 3226 3226 3226 3227 3226 3226 3224
3188 3189 3191 3192 3192 3192 3192 3191 3192 3191 3190 3189 3189 3189 3189 3190 3192 3194 3194 3195 3197 3199 3202 3206 3210 3212 3215 3219 3221 3223 3225 3226 3227 3228 3228 3228 3229 3229 3229 3229 3228 3227 3227 3227 3227 3226 3226 3225 3225
3190 3191 3192 3194 3195 3194 3195 3193 3193 3194 3194 3193 3193 3192 3192 3192 3194 3196 3196 3197 3198 3200 3203 3207 3210 3213 3216 3220 3223 3225 3227 3228 3229 3230 3230 3231 3231 3230 3230 3231 3229 3229 3228 3228 3226 3226 3225 3224 3224
3192 3193 3195 3196 3197 3197 3198 3197 3195 3197 3196 3196 3196 3196 3195 3196 3196 3197 3198 3199 3199 3201 3203 3207 3210 3212 3216 3218 3221 3224 3226 3227 3229 3230 3230 3230 3231 3230 3229 3228 3228 3226 3227 3226 3226 3225 3224 3222 3221
3194 3197 3196 3197 3198 3200 3201 3201 3199 3199 3199 3199 3199 3199 3199 3199 3199 3199 3200 3201 3201 3201 3203 3207 3209 3212 3215 3218 3221 3224 3226 3227 3229 3229 3228 3229 3229 3228 3226 3225 3226 3226 3225 3225 3224 3222 3219 3219 3218
3195 3195 3197 3198 3199 3201 3203 3203 3203 3200 3201 3201 3201 3201 3202 3202 3202 3202 3203 3203 3203 3204 3206 3207 3210 3212 3215 3217 3220 3222 3225 3227 3227 3228 3228 3228 3227 3226 3226 3223 3224 3223 3225 3224 3224 3221 3218 3219 3216
3193 3196 3196 3197 3199 3200 3202 3204 3204 3203 3203 3204 3203 3203 3203 3203 3204 3204 3204 3205 3206 3207 3208 3210 3212 3214 3216 3218 3220 3223 3225 3227 3227 3227 3226 3226 3225 3224 3222 3220 3221 3221 3221 3220 3222 3220 3219 3218 3216
3195 3196 3196 3199 3200 3199 3200 3203 3205 3205 3203 3205 3206 3205 3205 3204 3204 3205 3205 3206 3207 3209 3211 3213 3215 3216 3218 3219 3221 3223 3225 3226 3226 3225 3225 3223 3222 3221 3220 3216 3216 3219 3217 3218 3218 3218 3217 3216 3214
3193 3194 3195 3197 3198 3199 3197 3199 3203 3205 3205 3206 3206 3207 3206 3205 3204 3205 3206 3206 3209 3211 3213 3214 3215 3216 3217 3218 3220 3221 3222 3223 3224 3224 3223 3222 3220 3218 3217 3216 3216 3216 3217 3217 3216 3215 3214 3213 3210
3190 3190 3192 3194 3194 3193 3196 3197 3198 3202 3204 3203 3205 3205 3206 3206 3206 3206 3207 3208 3210 3212 3214 3215 3215 3216 3217 3218 3219 3220 3222 3222 3222 3221 3220 3220 3218 3217 3215 3214 3215 3216 3216 3215 3213 3212 3211 3210 3209
3186 3190 3190 3188 3188 3189 3195 3195 3192 3197 3200 3201 3202 3203 3204 3205 3206 3206 3207 3208 3211 3213 3214 3214 3216 3217 3217 3217 3217 3219 3220 3221 3220 3220 3219 3219 3217 3216 3216 3215 3215 3214 3214 3214 3212 3210 3208 3206 3206
3184 3186 3184 3183 3184 3187 3191 3196 3190 3192 3192 3194 3198 3200 3202 3204 3205 3206 3207 3209 3212 3212 3213 3215 3215 3215 3217 3218 3218 3217 3218 3219 3219 3218 3216 3216 3216 3215 3215 3214 3214 3214 3213 3213 3212 3208 3206 3204 3202
3182 3184 3183 3182 3187 3189 3187 3193 3188 3189 3188 3189 3193 3197 3199 3201 3203 3205 3207 3208 3209 3211 3211 3213 3215 3218 3217 3216 3217 3217 3218 3217 3218 3219 3218 3216 3215 3215 3214 3214 3213 3213 3212 3211 3209 3206 3203 3200 3195
3178 3180 3183 3190 3190 3187 3186 3190 3186 3186 3186 3186 3189 3193 3195 3198 3200 3203 3204 3205 3207 3209 3210 3212 3214 3213 3214 3216 3216 3216 3217 3218 3216 3216 3217 3218 3215 3213 3212 3211 3210 3209 3206 3205 3203 3200 3197 3194 3189
3174 3176 3177 3185 3188 3183 3185 3184 3183 3183 3182 3181 3184 3188 3193 3195 3197 3200 3202 3205 3207 3209 3209 3209 3211 3211 3211 3212 3213 3213 3214 3216 3214 3213 3212 3212 3211 3211 3209 3206 3205 3203 3202 3199 3195 3193 3191 3187 3183
3169 3172 3175 3176 3178 3180 3181 3181 3180 3179 3178 3175 3180 3183 3187 3191 3194 3197 3199 3202 3205 3206 3208 3207 3209 3209 3210 3211 3210 3210 3212 3212 3211 3210 3208 3207 3206 3205 3203 3201 3198 3195 3192 3190 3187 3184 3182 3179 3177
3164 3169 3171 3172 3179 3181 3177 3176 3177 3177 3177 3178 3180 3182 3185 3189 3191 3193 3196 3198 3200 3203 3205 3205 3205 3207 3207 3207 3208 3208 3207 3207 3206 3205 3203 3201 3198 3195 3192 3191 3190 3187 3185 3182 3179 3177 3175 3171 3169
3159 3161 3165 3167 3169 3172 3177 3173 3174 3176 3177 3178 3179 3182 3184 3187 3188 3190 3191 3193 3196 3198 3200 3202 3203 3202 3203 3204 3203 3203 3204 3203 3201 3200 3198 3195 3191 3188 3184 3183 3180 3179 3177 3175 3172 3169 3166 3163 3159
3153 3157 3160 3162 3166 3166 3168 3170 3172 3174 3174 3176 3178 3180 3182 3185 3185 3187 3189 3190 3192 3194 3195 3198 3199 3199 3199 3199 3199 3199 3198 3196 3196 3194 3190 3187 3185 3182 3178 3175 3172 3171 3169 3167 3164 3159 3156 3152 3148
Wind_Speed
12 10 7 8 6 5 7 5 7 4 6 8 8 10 2 8 13 8 23 21 21 20 19 19 21 21 22 23 23 22 21 20 19 18 15 15 15 14 14 14 14 13 12 11 12 12 13 13 14
12 15 14 14 13 10 6 6 3 2 5 5 12 8 6 6 3 23 20 22 21 18 19 21 22 21 22 22 21 20 19 18 17 15 14 14 13 13 13 12 13 13 12 12 11 12 13 13 13
8 9 7 3 12 9 7 8 5 1 6 8 8 9 7 10 19 18 18 21 20 19 21 24 22 22 23 22 20 18 16 16 15 13 13 13 12 12 13 12 12 12 12 12 11 12 12 12 12
4 6 12 13 14 12 10 12 8 5 7 10 10 9 15 12 12 13 21 20 19 20 23 23 22 23 22 21 17 15 14 13 12 12 11 11 11 11 12 11 11 11 11 11 12 12 12 12 10
5 7 8 9 11 10 12 14 11 3 6 10 10 15 18 14 14 15 18 18 15 18 24 23 23 23 20 17 15 14 13 11 10 10 11 11 11 11 12 10 10 10 9 10 10 11 11 10 9
6 5 6 6 7 8 11 12 10 8 8 9 12 16 18 15 13 14 14 17 17 20 22 22 19 23 18 16 16 15 14 9 7 8 10 10 11 11 11 9 8 7 7 8 7 8 8 9 9
8 1 3 2 5 7 9 10 12 10 10 9 10 13 17 15 14 15 14 17 16 22 24 17 24 23 19 18 17 14 9 5 7 8 9 9 10 11 10 9 7 6 5 5 4 6 7 7 8
5 7 6 3 1 6 7 9 10 8 8 11 6 5 14 16 15 12 13 17 15 18 17 23 22 22 19 16 16 16 10 7 8 9 10 10 9 8 7 6 6 4 4 3 3 2 4 5 3
2 5 8 3 3 8 10 9 13 11 7 8 9 9 11 12 12 12 15 16 14 12 17 24 24 23 21 18 15 17 7 8 10 10 12 11 9 8 6 5 4 3 2 1 1 1 1 1 2
5 8 5 1 5 12 12 11 12 16 12 11 10 12 13 11 11 11 15 15 14 14 15 21 22 22 20 20 11 17 12 8 10 12 11 9 9 8 6 6 4 2 2 1 2 2 2 4 3
11 14 5 6 8 11 13 13 13 16 16 16 12 11 11 11 15 17 14 10 14 15 17 20 24 21 17 18 19 14 10 10 11 11 10 9 8 8 6 6 5 4 3 2 2 3 4 6 7
7 12 9 10 10 11 11 13 13 16 17 18 16 13 12 14 14 14 11 11 12 15 17 17 17 14 16 18 15 15 12 11 7 9 10 8 6 5 5 6 3 4 3 1 2 5 6 6 8
10 13 13 11 10 10 12 14 13 15 17 19 18 18 16 15 14 13 11 11 12 14 18 15 14 17 17 17 13 9 13 14 8 7 7 3 2 2 2 1 1 3 3 3 4 6 7 9 6
13 15 17 13 10 11 10 15 10 12 14 17 17 19 21 20 18 16 12 10 11 14 17 15 18 19 18 15 16 10 11 11 6 2 1 3 4 5 6 7 9 11 8 6 7 8 9 10 10
14 20 17 12 9 10 10 14 14 9 12 14 15 16 19 20 19 18 15 12 11 14 18 20 21 20 18 18 17 15 9 6 3 4 6 4 9 10 9 8 9 7 7 9 9 12 12 13 14
17 19 19 14 12 6 5 9 13 12 8 10 13 13 15 17 18 18 17 17 17 15 18 19 20 18 17 14 16 15 12 8 6 5 4 5 12 8 7 6 6 7 8 6 9 15 9 12 15
22 19 21 17 17 10 1 7 9 15 13 9 12 13 13 14 16 17 18 18 19 19 19 19 19 16 14 14 16 14 15 10 6 4 4 8 6 6 9 10 7 8 8 11 12 8 10 11 14
19 17 24 15 14 17 12 6 7 12 16 12 10 12 14 14 13 13 14 15 16 17 18 18 18 17 17 18 17 13 9 7 4 5 7 7 7 9 14 15 11 7 7 8 3 2 5 10 11
9 11 18 13 16 17 16 14 8 8 13 14 12 11 11 13 14 13 13 13 12 13 13 14 13 12 11 10 9 6 4 4 5 6 4 7 6 9 12 13 13 5 6 8 7 6 8 10 10
13 13 16 15 7 18 24 21 13 13 8 10 9 10 11 11 11 12 12 12 12 11 11 11 11 11 10 8 7 6 5 2 2 6 8 9 9 6 3 2 5 10 8 5 3 4 6 9 14
18 17 16 19 19 13 17 23 22 18 15 13 10 11 10 9 9 10 11 11 12 11 9 8 7 8 8 8 7 5 3 2 4 7 9 7 6 3 3 5 7 7 5 2 2 4 8 11 15
21 13 13 15 17 13 16 6 26 23 20 18 12 12 12 12 12 10 10 11 11 11 11 11 9 7 8 8 7 5 5 4 7 7 8 7 7 5 5 5 4 4 5 7 8 11 13 16 18
19 9 14 17 15 16 21 8 16 12 25 22 20 11 14 12 10 10 10 10 10 13 11 10 7 8 7 6 8 8 7 8 9 10 10 9 11 11 9 8 9 11 13 15 19 22 21 23 25
13 9 7 5 17 8 17 22 13 17 13 14 16 14 13 16 15 12 14 15 16 14 14 13 8 6 8 7 8 8 11 11 10 13 12 12 13 15 13 15 16 17 19 21 23 27 30 30 31
15 7 4 3 3 6 15 15 18 11 14 16 15 10 14 14 16 17 18 19 17 13 13 13 12 5 10 11 10 12 14 13 10 8 18 23 21 18 19 22 23 23 23 26 31 34 32 35 36
16 11 8 6 5 4 9 9 7 12 13 15 9 13 11 12 13 15 19 17 15 13 13 14 13 14 3 19 14 16 13 14 20 17 21 24 29 26 27 26 28 30 33 31 38 41 38 40 40
14 11 12 8 4 2 5 7 13 12 11 4 19 20 18 12 11 11 19 19 18 18 14 13 13 20 15 14 9 19 19 15 16 23 28 30 23 28 36 38 34 36 34 39 46 43 40 42 43
20 12 10 9 5 4 5 4 8 11 2 5 16 15 14 9 9 11 11 11 16 20 19 15 19 18 21 19 14 16 20 22 19 21 27 35 37 40 36 36 40 37 41 41 46 49 49 48 46
23 19 13 9 7 8 2 3 5 10 7 8 6 8 10 8 7 5 6 8 11 16 23 23 20 24 24 22 19 20 23 24 25 30 32 32 33 34 34 38 42 44 37 36 44 46 47 48 50
27 26 20 18 9 7 5 7 4 2 1 6 9 10 11 9 8 9 8 7 9 10 13 22 24 25 26 24 22 22 26 25 28 32 30 30 32 32 31 37 44 47 46 45 47 44 44 46 50
Wind_Direction
97 81 57 56 68 94 111 106 92 135 139 190 178 156 227 138 130 139 140 136 136 137 137 133 131 127 129 127 124 123 122 120 118 116 114 113 112 110 107 106 105 102 100 100 99 98 95 94 91
113 86 78 66 78 103 98 62 41 131 115 139 184 196 193 159 155 146 142 141 142 142 140 137 132 132 131 128 126 124 121 119 119 118 114 113 112 112 108 107 106 104 102 96 93 96 97 96 96
124 92 54 30 68 75 76 56 29 107 137 129 189 174 156 116 134 136 146 147 145 146 146 139 137 138 135 129 126 121 120 121 117 111 112 111 109 109 108 107 105 105 107 105 101 98 97 95 96
109 96 75 81 75 74 66 46 37 54 97 117 142 155 119 119 138 127 144 147 147 149 147 143 142 144 139 135 124 117 116 118 111 108 109 108 109 112 108 110 109 108 109 109 107 100 97 95 90
115 96 83 82 76 78 55 42 38 50 104 119 146 145 132 132 130 135 143 143 146 158 151 145 147 146 144 133 118 111 112 115 112 115 117 114 114 114 112 114 112 111 105 103 110 110 103 106 110
124 92 75 83 86 71 51 53 57 94 142 128 142 145 130 127 130 142 154 153 158 164 152 149 155 145 143 131 124 108 98 90 116 123 124 117 113 117 119 118 113 106 103 104 106 104 107 115 107
54 76 95 99 84 76 41 49 61 84 102 127 144 146 140 136 137 144 144 142 173 173 162 155 150 146 145 136 127 130 119 88 111 103 106 112 117 122 128 130 127 107 97 99 97 111 116 127 112
300 282 249 224 106 77 42 31 54 73 127 137 142 189 150 145 143 151 148 150 186 172 171 152 145 144 140 141 121 106 121 122 97 92 93 90 98 108 118 129 133 117 108 108 125 113 126 122 135
308 251 227 220 112 70 67 37 45 62 88 122 115 122 139 137 139 146 146 140 166 175 148 149 152 147 146 140 137 133 113 104 98 94 85 83 84 88 95 100 98 105 109 117 90 41 350 53 77
230 219 239 236 109 70 68 59 57 73 83 104 109 113 123 128 131 135 128 136 144 159 169 164 151 146 147 153 139 124 133 131 113 98 96 99 100 93 87 85 89 97 89 29 356 351 330 316 320
211 197 218 171 112 62 62 79 72 78 89 94 87 98 106 114 128 134 137 120 134 163 173 164 158 156 159 143 133 131 131 120 107 108 104 105 92 98 87 82 71 63 53 38 357 303 287 275 278
188 189 198 142 89 64 71 83 88 82 85 88 97 100 106 118 124 132 122 119 132 147 170 170 168 174 155 133 132 129 133 112 120 112 108 92 77 80 95 93 114 75 54 21 10 347 315 293 273
180 186 183 152 87 66 78 92 99 89 88 86 87 91 96 109 125 133 134 136 142 153 167 172 176 172 166 164 132 149 153 148 150 129 120 105 304 343 3 2 279 206 241 301 337 313 314 312 294
184 169 170 146 106 69 66 71 95 105 97 94 90 90 96 103 108 109 109 126 146 162 170 181 170 175 176 178 181 168 149 149 135 73 7 22 10 342 322 306 314 315 318 322 301 322 309 295 286
183 165 168 158 154 98 53 70 93 115 110 103 97 92 93 102 109 108 98 98 123 150 167 171 173 178 177 178 185 187 172 189 214 275 325 344 354 338 330 337 335 319 321 308 309 315 295 278 281
176 182 174 179 191 160 69 85 94 106 115 120 115 107 101 100 102 104 105 94 95 120 146 165 173 173 183 193 206 208 203 217 243 314 323 323 336 322 314 330 342 349 346 343 341 328 318 333 303
185 191 196 195 206 215 224 121 97 110 104 127 133 127 120 111 105 104 105 106 107 113 122 136 151 163 175 185 189 200 208 215 267 289 305 316 315 317 332 302 310 322 338 305 323 285 297 326 358
192 206 211 227 227 231 230 223 140 116 110 110 114 137 137 131 125 117 114 114 116 117 121 129 139 148 158 171 181 185 197 220 258 302 311 319 304 294 313 289 278 306 302 330 50 304 16 32 33
179 239 230 255 262 261 265 251 219 160 122 98 114 114 132 142 146 146 141 136 130 125 126 124 126 130 133 138 144 159 197 254 291 290 279 296 299 300 313 291 255 312 97 105 95 64 32 11 0
245 250 246 267 252 269 261 255 242 221 150 122 125 138 131 119 139 153 158 156 151 152 153 147 151 152 157 164 178 199 229 248 295 297 277 292 304 310 329 81 125 119 127 114 79 19 357 347 341
238 241 263 288 288 238 241 244 241 222 199 186 169 165 163 143 132 140 145 159 172 170 163 165 168 179 180 188 202 213 208 251 268 270 266 278 283 265 184 156 142 147 148 172 284 311 316 326 322
229 249 297 297 266 204 204 244 243 235 229 208 199 209 174 163 151 154 150 154 166 172 181 186 181 207 215 218 219 232 246 253 255 257 246 251 233 224 216 201 205 236 262 275 284 285 294 302 307
232 274 297 299 221 200 197 221 251 247 245 245 217 201 208 194 174 153 148 164 169 186 180 194 192 209 230 256 249 246 252 258 261 263 236 217 235 231 231 234 248 264 274 296 300 291 293 295 301
225 286 293 307 180 207 215 208 258 248 293 273 252 212 199 202 202 187 177 182 188 190 194 194 188 247 277 252 252 246 256 252 255 271 248 237 234 247 247 253 262 271 287 295 299 288 288 291 295
222 250 116 79 223 211 207 217 255 286 298 302 261 188 193 204 208 208 204 196 196 199 207 206 189 166 8 280 253 237 242 302 254 292 272 275 260 255 258 266 271 276 279 286 287 282 287 292 294
207 223 179 184 187 176 195 214 251 306 294 280 207 183 203 213 223 223 225 223 210 215 218 220 219 215 303 333 264 248 252 299 288 264 272 297 276 271 273 275 280 279 278 279 279 288 285 297 298
216 212 213 206 163 152 199 240 281 321 321 231 179 185 192 201 222 232 243 240 233 232 235 245 248 240 251 313 292 261 267 319 315 285 274 280 292 287 288 275 281 279 278 277 277 280 283 290 296
221 224 200 196 132 210 220 255 293 330 314 134 183 195 183 180 211 234 251 261 256 248 245 253 258 263 260 285 315 296 289 271 313 303 292 291 299 299 290 276 272 277 289 281 271 275 279 287 291
209 221 218 214 195 158 172 244 279 286 262 221 203 166 183 178 181 199 221 235 242 252 248 254 262 267 274 278 298 287 287 270 292 307 308 299 295 293 283 267 267 274 284 279 277 282 282 283 287
222 234 235 215 200 184 199 252 224 14 218 213 214 208 200 195 173 172 182 207 221 243 253 260 266 266 271 272 283 291 277 288 283 298 297 289 291 298 290 277 271 272 280 283 290 287 286 289 290